Back to catalog

STARLINK-4164

AliveCommunicationsVLEO
NORAD 53282·PAYLOAD·🇺🇸 United States

Launched Jul 24, 2022 from Cape Canaveral Space Force Station

Loading…

Next Passes (next 24 hours)

TLE

FreshSource: CelesTrak SupGP

Epoch: Sep 14, 2026, 21:11 UTC

1 53282C 22086AS  26257.88312500  .00044200  00000+0  13416-2 0  2570
2 53282  53.1596  40.1872 0001193  77.6594  11.7614 15.33518694    11

Track STARLINK-4164 in real time with AllMySat

Download on the App Store